This is the latest recevied weather packets stored in our database for station/object KB9ZI. If no packets are shown the sender has not sent any weather packets the latest 10 day(s).
| Time | Temp. | Humidity | Pressure | Rain* | Wind** | Luminosity | Snow |
|---|---|---|---|---|---|---|---|
| 1777925406 | 16.11° C | 43% | 1000.9 hPa | 0 mm | - | - | - |
| 1777925287 | 16.11° C | 43% | 1001 hPa | 0 mm | - | - | - |
| 1777925136 | 16.11° C | 43% | 1000.8 hPa | 0 mm | - | - | - |
| 1777925065 | 16.11° C | 44% | 1000.9 hPa | 0 mm | - | - | - |
| 1777924964 | 16.11° C | 43% | 1000.8 hPa | 0 mm | - | - | - |
| 1777924764 | 16.67° C | 45% | 1000.8 hPa | 0 mm | - | - | - |
| 1777924647 | 16.67° C | 45% | 1000.4 hPa | 0 mm | - | - | - |
| 1777924528 | 16.67° C | 47% | 1000.7 hPa | 0 mm | - | - | - |
| 1777924395 | 16.67° C | 44% | 1000.9 hPa | 0 mm | - | - | - |
| 1777924270 | 16.67° C | 44% | 1000.8 hPa | 0 mm | - | - | - |
| 1777924143 | 16.67° C | 48% | 1000.8 hPa | 0 mm | - | - | - |
| 1777924087 | 16.67° C | 45% | 1000.8 hPa | 0 mm | - | - | - |
| 1777923906 | 16.67° C | 48% | 1000.8 hPa | 0 mm | - | - | - |
| 1777923785 | 16.11° C | 48% | 1000.7 hPa | 0 mm | - | - | - |
| 1777923752 | 16.11° C | 47% | 1000.7 hPa | 0 mm | - | - | - |
| 1777923541 | 15.56° C | 45% | 1000.7 hPa | 0 mm | - | - | - |
| 1777923421 | 16.11° C | 43% | 1000.6 hPa | 0 mm | - | - | - |
| 1777923302 | 16.67° C | 45% | 1000.6 hPa | 0 mm | - | - | - |
| 1777923229 | 16.67° C | 45% | 1000.3 hPa | 0 mm | - | - | - |
| 1777923143 | 16.67° C | 46% | 1000.6 hPa | 0 mm | - | - | - |
| 1777922915 | 16.67° C | 48% | 1000.4 hPa | 0 mm | - | - | - |
| 1777922797 | 16.67° C | 49% | 1000.4 hPa | 0 mm | - | - | - |
| 1777922672 | 16.11° C | 47% | 1000.6 hPa | 0 mm | - | - | - |
| 1777922575 | 16.11° C | 44% | 1000.4 hPa | 0 mm | - | - | - |
| 1777922543 | 16.11° C | 44% | 1000.4 hPa | 0 mm | - | - | - |
* Rain latest hour (hover to see other rain measurements)
** Current wind speed in m/s (hover to see current wind gust speed)